STARLINK-35019 (65513 NORAD) Tracking and Keplerian Element Data

This shows tracking and keplerian element data for the satellite.

Feedback or suggestion? Click here.




ElementValue
Catalog65513
NameSTARLINK-35019
Epoch Orbit1640
Epoch Day354.18433378
Epoch Year2025
RAAN283.4018
Inclination53.1597
Eccentricity0.0001101
Argument of Perigee71.5331
Mean Anonmoly288.5793
Mean Motion15.39637612
Decay Rate0.00029031
L11 65513U 25198X 25354.18433378 .00029031 00000+0 73257-3 0 9992
L22 65513 53.1597 283.4018 0001101 71.5331 288.5793 15.39637612 16407



Live tracking and technical data element details for STARLINK-35019 (NORAD 65513). STARLINK-35019 can be tracked NOW for your location showing map with azimuth and elevation plus other details from your city location.







IsCatalogInMostPopularTable: catalog: 65513, numindb: 3
Update: records affected: 1



GetName: 65513 STARLINK-35019

Hit Count: updated at: Tue, 10 Feb 2026 02:12:39 GMT